contact:dominique.lefevre@mio.osupytheas.fr, maurice.libes@osupytheas.fr, didier.mallarino@osupytheas.fr
Project:EMSO http://www.emso-fr.org/EMSO-France
Depth: 2436.0 m
Title:EMSO Ligure Ouest : Data MII capteur AQUADOPP
Date,Latitude,Longitude,X_East,Y_North,Z_Up,Amplitude_X,Amplitude_Y,Amplitude_Z,Batterie,SoundSpeed,Heading,Pitch,Roll,Pressure,TIS,Speed,Direction
, degrees North, degrees East, m.s-1, m.s-1,m.s-1, 1, 1, 1, Volt, m.s-1, degree, degree, degree, dbar, degree_C, m.s-1, degree
2022-11-12T00:04:03,42.805,6.029,0.012,-0.011,0.016,104.0,105.0,103.0,13.3,1505.2,330.2,-0.8,1.8,2471.202,13.28,0.016,132.5
2022-11-12T00:07:03,42.805,6.029,0.034,-0.011,0.013,104.0,105.0,102.0,13.4,1505.2,318.4,-0.8,1.8,2471.185,13.28,0.035,107.9
2022-11-12T00:10:03,42.805,6.029,0.048,-0.026,-0.019,104.0,104.0,102.0,13.4,1505.2,319.4,-0.8,1.8,2471.208,13.28,0.054,118.4
2022-11-12T00:13:03,42.805,6.029,0.046,-0.013,0.003,105.0,104.0,102.0,13.3,1505.2,332.7,-0.8,1.8,2471.151,13.28,0.047,105.8
2022-11-12T00:16:03,42.805,6.029,0.032,-0.033,0.014,104.0,104.0,103.0,13.4,1505.2,329.1,-0.8,1.8,2471.154,13.28,0.045,135.9
2022-11-12T00:19:03,42.805,6.029,0.043,-0.015,-0.007,105.0,105.0,102.0,13.4,1505.2,317.3,-0.7,1.8,2471.195,13.29,0.045,109.2
2022-11-12T00:22:03,42.805,6.029,0.048,-0.005,-0.003,104.0,105.0,103.0,13.3,1505.2,332.7,-0.8,1.8,2471.176,13.29,0.048,95.9
2022-11-12T00:25:03,42.805,6.029,0.044,-0.01,0.0,104.0,104.0,103.0,13.4,1505.2,330.8,-0.7,1.8,2471.171,13.29,0.045,102.8
2022-11-12T00:28:03,42.805,6.029,0.042,-0.024,-0.027,104.0,104.0,103.0,13.3,1505.2,331.3,-0.7,1.8,2471.197,13.29,0.048,119.7
2022-11-12T00:31:03,42.805,6.029,0.034,-0.037,0.003,104.0,105.0,101.0,13.4,1505.2,330.5,-0.7,1.8,2471.169,13.29,0.05,137.4
2022-11-12T00:34:03,42.805,6.029,0.036,-0.022,0.016,105.0,105.0,102.0,13.3,1505.2,322.8,-0.8,1.8,2471.144,13.29,0.042,121.4
2022-11-12T00:37:03,42.805,6.029,0.05,-0.015,-0.008,105.0,104.0,103.0,13.4,1505.2,323.3,-0.7,1.8,2471.159,13.29,0.052,106.7
2022-11-12T00:40:03,42.805,6.029,0.034,-0.02,0.013,104.0,104.0,103.0,13.4,1505.2,333.4,-0.8,1.8,2471.145,13.29,0.039,120.5
2022-11-12T00:43:03,42.805,6.029,0.058,-0.033,-0.004,103.0,104.0,102.0,13.3,1505.2,324.4,-0.8,1.8,2471.137,13.29,0.066,119.6
2022-11-12T00:46:03,42.805,6.029,0.043,-0.012,0.025,105.0,103.0,102.0,13.4,1505.2,323.4,-0.8,1.8,2471.112,13.29,0.044,105.6
2022-11-12T00:49:03,42.805,6.029,0.033,-0.004,0.037,105.0,105.0,102.0,13.3,1505.2,324.2,-0.8,1.8,2471.097,13.29,0.033,96.9
2022-11-12T00:52:03,42.805,6.029,0.029,-0.009,-0.001,105.0,104.0,103.0,13.4,1505.2,320.7,-0.8,1.8,2471.142,13.29,0.03,107.2
2022-11-12T00:55:03,42.805,6.029,0.031,-0.013,0.015,103.0,105.0,103.0,13.4,1505.2,323.1,-0.8,1.8,2471.128,13.29,0.033,112.7
2022-11-12T00:58:03,42.805,6.029,0.021,0.013,0.04,104.0,105.0,103.0,13.4,1505.2,315.9,-0.8,1.8,2471.122,13.29,0.024,58.2
2022-11-12T01:04:03,42.805,6.029,0.022,-0.022,0.015,107.0,105.0,104.0,13.4,1505.2,333.4,-0.8,1.8,2471.161,13.28,0.031,135.0
2022-11-12T01:07:04,42.805,6.029,0.025,0.005,-0.011,105.0,106.0,102.0,13.4,1505.2,320.8,-0.8,1.8,2471.151,13.28,0.025,78.7
2022-11-12T01:10:03,42.805,6.029,0.019,0.005,-0.001,104.0,104.0,102.0,13.4,1505.2,320.9,-0.7,1.8,2471.105,13.28,0.019,75.3
2022-11-12T01:13:03,42.805,6.029,0.035,-0.017,0.009,104.0,104.0,103.0,13.4,1505.2,326.9,-0.8,1.8,2471.126,13.28,0.038,115.9
2022-11-12T01:16:03,42.805,6.029,0.021,0.009,0.012,105.0,104.0,102.0,13.4,1505.2,321.2,-0.7,1.8,2471.128,13.28,0.022,66.8
2022-11-12T01:19:03,42.805,6.029,0.012,0.006,0.02,104.0,104.0,102.0,13.4,1505.2,320.9,-0.8,1.8,2471.161,13.29,0.013,63.4
2022-11-12T01:22:03,42.805,6.029,0.024,-0.006,-0.01,105.0,104.0,102.0,13.4,1505.2,317.9,-0.7,1.8,2471.142,13.29,0.024,104.0
2022-11-12T01:25:03,42.805,6.029,0.052,-0.004,0.031,105.0,105.0,102.0,13.3,1505.2,324.4,-0.8,1.8,2471.121,13.29,0.052,94.4
2022-11-12T01:28:03,42.805,6.029,0.026,-0.034,0.003,104.0,105.0,102.0,13.3,1505.2,333.4,-0.7,1.8,2471.12,13.29,0.042,142.6
2022-11-12T01:31:03,42.805,6.029,0.025,-0.017,0.007,105.0,105.0,103.0,13.4,1505.2,332.0,-0.8,1.8,2471.093,13.29,0.03,124.2
2022-11-12T01:34:03,42.805,6.029,0.014,-0.008,0.008,105.0,104.0,102.0,13.4,1505.2,321.4,-0.8,1.8,2471.152,13.29,0.016,119.7
2022-11-12T01:37:03,42.805,6.029,0.035,-0.024,0.02,104.0,104.0,103.0,13.4,1505.2,330.1,-0.7,1.8,2471.11,13.29,0.042,124.4
2022-11-12T01:40:03,42.805,6.029,0.023,-0.011,-0.019,105.0,104.0,102.0,13.4,1505.2,317.3,-0.7,1.8,2471.126,13.29,0.025,115.6
2022-11-12T01:43:03,42.805,6.029,0.018,0.001,0.016,104.0,105.0,103.0,13.4,1505.2,324.2,-0.7,1.8,2471.105,13.29,0.018,86.8
2022-11-12T01:46:03,42.805,6.029,0.019,0.0,-0.02,104.0,105.0,102.0,13.4,1505.2,323.2,-0.8,1.8,2471.092,13.29,0.019,90.0
2022-11-12T01:49:03,42.805,6.029,0.01,-0.026,0.01,105.0,103.0,102.0,13.4,1505.2,332.3,-0.7,1.8,2471.116,13.29,0.027,159.0
2022-11-12T01:52:03,42.805,6.029,0.006,-0.021,0.007,104.0,105.0,102.0,13.4,1505.2,333.1,-0.8,1.8,2471.149,13.29,0.021,164.1
2022-11-12T01:55:03,42.805,6.029,0.035,-0.002,0.028,104.0,105.0,102.0,13.4,1505.2,332.0,-0.8,1.8,2471.122,13.29,0.035,93.3
2022-11-12T01:58:03,42.805,6.029,0.007,0.0,0.01,104.0,104.0,102.0,13.3,1505.2,328.4,-0.8,1.8,2471.095,13.29,0.007,90.0
2022-11-12T02:04:03,42.805,6.029,0.031,-0.021,-0.008,104.0,104.0,103.0,13.4,1505.2,322.5,-0.7,1.8,2471.16,13.28,0.037,124.1
2022-11-12T02:07:03,42.805,6.029,0.051,-0.012,0.033,104.0,104.0,102.0,13.4,1505.2,329.6,-0.8,1.8,2471.182,13.28,0.052,103.2
2022-11-12T02:10:03,42.805,6.029,0.02,-0.001,-0.012,103.0,105.0,103.0,13.4,1505.2,332.1,-0.8,1.8,2471.13,13.28,0.02,92.9
2022-11-12T02:13:03,42.805,6.029,0.012,-0.018,-0.02,104.0,103.0,103.0,13.4,1505.2,328.9,-0.7,1.8,2471.13,13.29,0.021,146.3
2022-11-12T02:16:03,42.805,6.029,0.01,-0.011,-0.018,103.0,106.0,103.0,13.4,1505.2,330.0,-0.8,1.8,2471.112,13.29,0.014,137.7
2022-11-12T02:19:03,42.805,6.029,0.002,-0.004,0.007,103.0,105.0,102.0,13.4,1505.2,318.5,-0.8,1.8,2471.164,13.29,0.004,153.4
2022-11-12T02:22:03,42.805,6.029,0.032,-0.008,0.008,104.0,104.0,102.0,13.4,1505.2,315.9,-0.8,1.8,2471.091,13.29,0.032,104.0
2022-11-12T02:25:03,42.805,6.029,0.033,0.012,-0.001,104.0,104.0,102.0,13.3,1505.2,330.0,-0.8,1.8,2471.132,13.29,0.035,70.0
2022-11-12T02:28:03,42.805,6.029,0.025,0.006,0.042,104.0,105.0,102.0,13.4,1505.2,331.7,-0.8,1.8,2471.103,13.29,0.025,76.5
2022-11-12T02:31:03,42.805,6.029,0.006,0.001,0.006,105.0,104.0,103.0,13.3,1505.2,330.8,-0.8,1.8,2471.118,13.29,0.006,80.5
2022-11-12T02:34:03,42.805,6.029,0.007,-0.002,0.008,105.0,104.0,103.0,13.4,1505.2,322.5,-0.7,1.9,2471.114,13.29,0.007,105.9
2022-11-12T02:37:03,42.805,6.029,-0.002,0.013,0.031,105.0,105.0,102.0,13.4,1505.2,328.6,-0.7,1.9,2471.113,13.29,0.013,351.3
2022-11-12T02:40:03,42.805,6.029,0.039,-0.003,0.0,105.0,105.0,101.0,13.4,1505.2,331.0,-0.8,1.8,2471.125,13.29,0.039,94.4
2022-11-12T02:43:03,42.805,6.029,-0.001,-0.001,0.02,104.0,104.0,103.0,13.3,1505.2,320.1,-0.8,1.8,2471.077,13.29,0.001,225.0
2022-11-12T02:46:03,42.805,6.029,0.011,-0.005,-0.01,104.0,105.0,102.0,13.4,1505.2,321.4,-0.7,1.8,2471.09,13.29,0.012,114.4
2022-11-12T02:49:03,42.805,6.029,0.022,-0.001,0.01,106.0,103.0,102.0,13.3,1505.2,328.6,-0.7,1.8,2471.11,13.29,0.022,92.6
2022-11-12T02:52:03,42.805,6.029,0.013,0.021,0.042,104.0,105.0,102.0,13.3,1505.2,325.2,-0.7,1.8,2471.106,13.29,0.024,31.8
2022-11-12T02:55:03,42.805,6.029,-0.006,0.024,0.017,103.0,105.0,103.0,13.3,1505.2,323.1,-0.8,1.8,2471.105,13.29,0.024,346.0
2022-11-12T02:58:03,42.805,6.029,0.013,0.003,-0.001,105.0,103.0,101.0,13.3,1505.2,334.1,-0.8,1.8,2471.089,13.29,0.013,77.0
2022-11-12T03:04:03,42.805,6.029,0.01,0.006,0.043,105.0,105.0,104.0,13.4,1505.2,334.0,-0.8,1.8,2471.136,13.28,0.011,59.0
2022-11-12T03:07:03,42.805,6.029,0.024,-0.009,0.023,105.0,104.0,102.0,13.3,1505.2,331.9,-0.8,1.8,2471.125,13.29,0.025,110.6
2022-11-12T03:10:03,42.805,6.029,-0.003,-0.006,-0.028,103.0,104.0,103.0,13.4,1505.2,333.0,-0.8,1.9,2471.127,13.29,0.006,206.6
2022-11-12T03:13:03,42.805,6.029,-0.007,0.005,0.041,105.0,103.0,102.0,13.3,1505.2,327.5,-0.8,1.8,2471.112,13.29,0.008,305.5
2022-11-12T03:16:03,42.805,6.029,0.002,0.001,0.012,105.0,105.0,102.0,13.4,1505.2,318.9,-0.8,1.8,2471.15,13.29,0.002,63.4
2022-11-12T03:19:03,42.805,6.029,0.023,0.007,0.017,105.0,104.0,101.0,13.4,1505.2,330.6,-0.8,1.8,2471.093,13.29,0.024,73.1
2022-11-12T03:22:03,42.805,6.029,0.026,0.0,0.006,105.0,105.0,102.0,13.4,1505.2,321.0,-0.7,1.8,2471.136,13.29,0.026,90.0
2022-11-12T03:25:03,42.805,6.029,0.0,0.011,0.009,105.0,104.0,101.0,13.4,1505.2,322.0,-0.7,1.8,2471.141,13.29,0.011,0.0
2022-11-12T03:28:03,42.805,6.029,0.017,0.009,0.034,105.0,104.0,102.0,13.4,1505.2,335.8,-0.8,1.8,2471.126,13.29,0.019,62.1
2022-11-12T03:31:03,42.805,6.029,0.024,0.022,0.005,104.0,105.0,102.0,13.3,1505.2,324.2,-0.8,1.8,2471.13,13.29,0.032,47.5
2022-11-12T03:34:03,42.805,6.029,-0.015,0.0,0.0,104.0,105.0,102.0,13.4,1505.2,334.8,-0.7,1.8,2471.103,13.29,0.015,270.0
2022-11-12T03:37:03,42.805,6.029,0.005,0.029,0.014,104.0,104.0,102.0,13.4,1505.2,318.5,-0.8,1.8,2471.096,13.29,0.029,9.8
2022-11-12T03:40:03,42.805,6.029,0.003,0.022,0.029,104.0,105.0,102.0,13.4,1505.2,317.8,-0.8,1.8,2471.107,13.29,0.022,7.8
2022-11-12T03:43:03,42.805,6.029,0.002,0.015,-0.004,104.0,104.0,103.0,13.4,1505.2,323.5,-0.8,1.8,2471.08,13.29,0.015,7.6
2022-11-12T03:46:03,42.805,6.029,0.0,0.002,0.01,104.0,105.0,102.0,13.3,1505.2,322.4,-0.8,1.8,2471.126,13.29,0.002,0.0
2022-11-12T03:49:03,42.805,6.029,-0.016,0.013,0.024,104.0,105.0,102.0,13.4,1505.2,322.4,-0.7,1.8,2471.074,13.29,0.02,309.1
2022-11-12T03:52:03,42.805,6.029,0.007,0.006,0.01,105.0,105.0,102.0,13.4,1505.2,324.8,-0.8,1.9,2471.128,13.29,0.009,49.4
2022-11-12T03:55:03,42.805,6.029,-0.001,0.0,0.002,104.0,105.0,102.0,13.4,1505.2,317.3,-0.7,1.8,2471.075,13.29,0.001,270.0
2022-11-12T03:58:03,42.805,6.029,0.001,0.003,0.017,104.0,105.0,102.0,13.3,1505.2,329.8,-0.8,1.8,2471.122,13.29,0.003,18.4
2022-11-12T04:04:03,42.805,6.029,0.003,0.0,0.005,104.0,104.0,103.0,13.4,1505.2,319.9,-0.8,1.8,2471.138,13.29,0.003,90.0
2022-11-12T04:07:03,42.805,6.029,0.016,-0.006,0.001,104.0,104.0,103.0,13.3,1505.2,324.5,-0.8,1.8,2471.129,13.29,0.017,110.6
2022-11-12T04:10:03,42.805,6.029,0.01,0.018,0.023,104.0,105.0,103.0,13.4,1505.2,315.9,-0.8,1.8,2471.124,13.29,0.02,29.1
2022-11-12T04:13:03,42.805,6.029,-0.017,0.008,0.002,104.0,104.0,104.0,13.3,1505.2,323.7,-0.8,1.8,2471.12,13.29,0.018,295.2
2022-11-12T04:16:03,42.805,6.029,0.01,0.021,0.008,103.0,104.0,103.0,13.4,1505.2,328.9,-0.8,1.8,2471.14,13.29,0.023,25.5
2022-11-12T04:19:03,42.805,6.029,-0.003,0.011,0.0,105.0,106.0,102.0,13.4,1505.2,316.3,-0.8,1.8,2471.105,13.29,0.011,344.7
2022-11-12T04:22:03,42.805,6.029,0.016,0.017,0.001,104.0,106.0,103.0,13.3,1505.2,321.6,-0.8,1.8,2471.107,13.29,0.023,43.3
2022-11-12T04:25:03,42.805,6.029,-0.001,0.023,0.045,104.0,106.0,102.0,13.4,1505.2,321.5,-0.8,1.8,2471.144,13.29,0.023,357.5
2022-11-12T04:28:03,42.805,6.029,0.021,0.001,-0.001,104.0,106.0,103.0,13.4,1505.2,331.4,-0.8,1.8,2471.12,13.29,0.021,87.3
2022-11-12T04:31:03,42.805,6.029,-0.001,0.02,0.015,104.0,106.0,103.0,13.4,1505.2,322.4,-0.7,1.8,2471.096,13.29,0.02,357.1
2022-11-12T04:34:03,42.805,6.029,0.012,0.018,0.023,104.0,106.0,101.0,13.3,1505.2,326.3,-0.7,1.8,2471.113,13.29,0.021,33.7
2022-11-12T04:37:03,42.805,6.029,-0.032,0.007,0.023,104.0,107.0,102.0,13.4,1505.2,318.8,-0.7,1.8,2471.115,13.29,0.032,282.3
2022-11-12T04:40:03,42.805,6.029,-0.004,0.021,0.008,103.0,105.0,102.0,13.4,1505.2,319.8,-0.8,1.8,2471.105,13.29,0.021,349.2
2022-11-12T04:43:03,42.805,6.029,0.005,0.025,0.04,104.0,106.0,102.0,13.4,1505.2,319.4,-0.8,1.8,2471.139,13.29,0.025,11.3
2022-11-12T04:46:03,42.805,6.029,-0.008,0.021,0.018,104.0,106.0,103.0,13.4,1505.2,322.8,-0.7,1.8,2471.129,13.29,0.022,339.1
2022-11-12T04:49:03,42.805,6.029,0.006,0.021,0.029,105.0,106.0,102.0,13.3,1505.2,318.5,-0.7,1.8,2471.089,13.29,0.021,15.9
2022-11-12T04:52:03,42.805,6.029,-0.008,0.025,0.045,104.0,108.0,102.0,13.3,1505.2,322.3,-0.8,1.9,2471.094,13.29,0.026,342.3
2022-11-12T04:55:03,42.805,6.029,-0.014,0.016,0.03,104.0,106.0,102.0,13.4,1505.2,324.4,-0.8,1.8,2471.085,13.29,0.021,318.8
2022-11-12T04:58:03,42.805,6.029,-0.012,0.021,0.009,104.0,106.0,101.0,13.4,1505.2,320.7,-0.7,1.8,2471.087,13.29,0.024,330.3
2022-11-12T05:04:03,42.805,6.029,0.012,0.03,0.019,104.0,106.0,102.0,13.4,1505.2,327.0,-0.8,1.8,2471.165,13.28,0.032,21.8
2022-11-12T05:07:03,42.805,6.029,0.011,0.02,0.022,105.0,106.0,102.0,13.4,1505.2,334.8,-0.8,1.8,2471.168,13.29,0.022,28.8
2022-11-12T05:10:03,42.805,6.029,-0.005,0.023,0.0,105.0,105.0,102.0,13.4,1505.2,327.4,-0.8,1.8,2471.134,13.29,0.023,347.7
2022-11-12T05:13:03,42.805,6.029,-0.008,0.034,0.015,104.0,107.0,103.0,13.3,1505.2,325.5,-0.8,1.8,2471.188,13.29,0.034,346.8
2022-11-12T05:16:03,42.805,6.029,-0.021,0.025,-0.01,105.0,106.0,102.0,13.3,1505.2,327.5,-0.8,1.8,2471.151,13.29,0.032,320.0
2022-11-12T05:19:03,42.805,6.029,0.0,0.018,0.002,104.0,106.0,103.0,13.4,1505.2,329.9,-0.8,1.8,2471.136,13.29,0.018,0.0
2022-11-12T05:22:03,42.805,6.029,-0.002,0.027,0.029,103.0,107.0,101.0,13.3,1505.2,335.1,-0.8,1.8,2471.146,13.29,0.027,355.8
2022-11-12T05:25:03,42.805,6.029,-0.022,0.024,0.001,104.0,106.0,102.0,13.4,1505.2,328.6,-0.7,1.8,2471.161,13.29,0.032,317.5
2022-11-12T05:28:03,42.805,6.029,-0.01,0.0,0.03,104.0,106.0,102.0,13.4,1505.2,325.6,-0.8,1.8,2471.151,13.29,0.01,270.0
2022-11-12T05:31:03,42.805,6.029,-0.002,0.027,0.03,104.0,106.0,102.0,13.4,1505.2,322.0,-0.8,1.8,2471.183,13.29,0.027,355.8
2022-11-12T05:34:03,42.805,6.029,-0.002,0.009,0.032,104.0,107.0,102.0,13.3,1505.2,326.3,-0.7,1.8,2471.125,13.29,0.009,347.5
2022-11-12T05:37:03,42.805,6.029,-0.006,0.022,0.045,105.0,107.0,100.0,13.3,1505.2,320.7,-0.8,1.8,2471.141,13.29,0.022,344.7
2022-11-12T05:40:03,42.805,6.029,0.007,0.034,-0.015,105.0,106.0,102.0,13.4,1505.2,320.6,-0.8,1.8,2471.193,13.29,0.034,11.6
2022-11-12T05:43:03,42.805,6.029,0.012,0.02,0.054,105.0,106.0,102.0,13.4,1505.2,318.8,-0.8,1.8,2471.134,13.29,0.023,31.0
2022-11-12T05:46:03,42.805,6.029,0.005,0.012,0.0,105.0,106.0,102.0,13.4,1505.2,331.0,-0.8,1.8,2471.165,13.29,0.013,22.6
2022-11-12T05:49:03,42.805,6.029,-0.024,0.023,0.031,104.0,106.0,103.0,13.4,1505.2,335.4,-0.8,1.8,2471.187,13.29,0.033,313.8
2022-11-12T05:52:03,42.805,6.029,-0.024,0.032,0.044,105.0,105.0,102.0,13.4,1505.2,327.0,-0.7,1.8,2471.126,13.29,0.04,323.1
2022-11-12T05:55:03,42.805,6.029,0.008,0.0,0.019,104.0,106.0,102.0,13.4,1505.2,321.6,-0.8,1.8,2471.177,13.29,0.008,90.0
2022-11-12T05:58:03,42.805,6.029,-0.029,0.038,0.015,104.0,106.0,102.0,13.4,1505.2,329.3,-0.7,1.8,2471.165,13.29,0.047,322.7
2022-11-12T06:04:03,42.805,6.029,-0.029,0.035,-0.002,105.0,106.0,102.0,13.3,1505.2,330.0,-0.8,1.8,2471.228,13.28,0.045,320.4
2022-11-12T06:07:03,42.805,6.029,0.011,0.026,0.007,104.0,106.0,102.0,13.4,1505.2,333.7,-0.8,1.8,2471.246,13.29,0.028,22.9
2022-11-12T06:10:03,42.805,6.029,0.005,0.03,-0.005,104.0,106.0,102.0,13.4,1505.2,318.6,-0.8,1.8,2471.166,13.29,0.03,9.5
2022-11-12T06:13:03,42.805,6.029,-0.027,0.0,0.0,105.0,106.0,102.0,13.4,1505.2,325.9,-0.8,1.8,2471.201,13.29,0.026,270.0
2022-11-12T06:16:03,42.805,6.029,-0.011,0.028,0.002,104.0,106.0,103.0,13.3,1505.2,320.9,-0.7,1.8,2471.221,13.29,0.03,338.6
2022-11-12T06:19:03,42.805,6.029,0.0,0.024,0.056,104.0,105.0,103.0,13.4,1505.2,325.0,-0.8,1.8,2471.175,13.29,0.024,0.0
2022-11-12T06:22:03,42.805,6.029,-0.006,0.029,0.01,104.0,106.0,102.0,13.4,1505.2,325.3,-0.8,1.8,2471.212,13.29,0.029,348.3
2022-11-12T06:25:03,42.805,6.029,-0.016,0.035,-0.002,104.0,106.0,102.0,13.3,1505.2,327.6,-0.8,1.8,2471.203,13.29,0.038,335.4
2022-11-12T06:28:03,42.805,6.029,0.001,0.023,0.034,104.0,106.0,102.0,13.4,1505.2,327.1,-0.8,1.8,2471.197,13.29,0.023,2.5
2022-11-12T06:31:03,42.805,6.029,-0.002,0.028,0.023,104.0,107.0,103.0,13.4,1505.2,323.8,-0.8,1.8,2471.247,13.29,0.028,355.9
2022-11-12T06:34:03,42.805,6.029,-0.009,0.032,0.005,104.0,106.0,102.0,13.3,1505.2,330.7,-0.8,1.8,2471.201,13.29,0.033,344.3
2022-11-12T06:37:03,42.805,6.029,-0.023,0.017,0.027,105.0,105.0,102.0,13.3,1505.2,326.4,-0.8,1.8,2471.214,13.29,0.028,306.5
2022-11-12T06:40:03,42.805,6.029,-0.004,0.009,0.016,104.0,106.0,102.0,13.3,1505.2,318.9,-0.8,1.8,2471.228,13.29,0.009,336.0
2022-11-12T06:43:03,42.805,6.029,0.004,0.04,0.03,104.0,107.0,102.0,13.3,1505.2,334.7,-0.7,1.8,2471.234,13.29,0.04,5.7
2022-11-12T06:46:03,42.805,6.029,0.014,0.029,0.038,104.0,106.0,102.0,13.4,1505.2,323.1,-0.8,1.8,2471.194,13.29,0.032,25.8
2022-11-12T06:49:03,42.805,6.029,0.008,0.039,0.036,104.0,106.0,102.0,13.4,1505.2,328.1,-0.7,1.8,2471.211,13.29,0.039,11.6
2022-11-12T06:52:03,42.805,6.029,-0.004,0.03,0.012,103.0,106.0,103.0,13.4,1505.2,324.0,-0.7,1.8,2471.221,13.29,0.03,352.4
2022-11-12T06:55:03,42.805,6.029,-0.013,0.032,0.023,103.0,105.0,102.0,13.4,1505.2,322.8,-0.8,1.8,2471.238,13.29,0.034,337.9
2022-11-12T06:58:03,42.805,6.029,-0.038,0.032,0.017,103.0,104.0,103.0,13.4,1505.2,328.1,-0.7,1.8,2471.232,13.29,0.049,310.1
2022-11-12T07:04:03,42.805,6.029,-0.016,0.032,0.009,104.0,105.0,102.0,13.4,1505.2,318.6,-0.8,1.8,2471.246,13.28,0.035,333.4
2022-11-12T07:07:03,42.805,6.029,-0.009,0.043,0.033,104.0,106.0,102.0,13.3,1505.2,320.3,-0.8,1.8,2471.224,13.28,0.043,348.2
2022-11-12T07:10:03,42.805,6.029,-0.009,0.037,0.035,105.0,105.0,102.0,13.4,1505.2,318.5,-0.8,1.8,2471.251,13.29,0.038,346.3
2022-11-12T07:13:03,42.805,6.029,0.004,0.036,0.026,104.0,106.0,102.0,13.4,1505.2,329.3,-0.8,1.8,2471.267,13.29,0.036,6.3
2022-11-12T07:16:03,42.805,6.029,-0.018,0.043,0.026,104.0,106.0,102.0,13.4,1505.2,328.3,-0.8,1.8,2471.253,13.29,0.046,337.3
2022-11-12T07:19:03,42.805,6.029,-0.009,0.035,0.055,104.0,106.0,101.0,13.4,1505.2,335.0,-0.8,1.8,2471.263,13.29,0.036,345.6
2022-11-12T07:22:03,42.805,6.029,-0.011,0.025,0.023,104.0,106.0,102.0,13.3,1505.2,328.7,-0.8,1.8,2471.255,13.29,0.027,336.3
2022-11-12T07:25:03,42.805,6.029,-0.023,0.041,0.063,103.0,106.0,103.0,13.4,1505.2,317.7,-0.8,1.8,2471.241,13.29,0.047,330.7
2022-11-12T07:28:03,42.805,6.029,0.022,0.044,0.05,105.0,105.0,102.0,13.4,1505.2,332.3,-0.8,1.8,2471.286,13.29,0.049,26.6
2022-11-12T07:31:03,42.805,6.029,-0.027,0.029,0.004,104.0,106.0,102.0,13.3,1505.2,324.0,-0.8,1.9,2471.267,13.29,0.039,317.0
2022-11-12T07:34:03,42.805,6.029,-0.014,0.038,0.021,103.0,104.0,102.0,13.3,1505.2,325.4,-0.7,1.8,2471.224,13.29,0.04,339.8
2022-11-12T07:37:03,42.805,6.029,-0.027,0.057,0.037,102.0,105.0,102.0,13.4,1505.2,323.5,-0.7,1.8,2471.285,13.29,0.063,334.7
2022-11-12T07:40:03,42.805,6.029,-0.006,0.033,0.034,104.0,106.0,102.0,13.4,1505.2,334.4,-0.8,1.8,2471.279,13.29,0.033,349.7
2022-11-12T07:43:03,42.805,6.029,-0.018,0.047,0.027,105.0,107.0,102.0,13.4,1505.2,322.0,-0.8,1.8,2471.269,13.29,0.05,339.0
2022-11-12T07:46:03,42.805,6.029,-0.008,0.031,0.032,103.0,106.0,102.0,13.4,1505.2,319.7,-0.8,1.8,2471.26,13.29,0.032,345.5
2022-11-12T07:49:03,42.805,6.029,-0.003,0.037,0.047,104.0,105.0,103.0,13.4,1505.2,324.8,-0.7,1.8,2471.261,13.29,0.037,355.4
2022-11-12T07:52:03,42.805,6.029,-0.003,0.037,0.045,104.0,106.0,102.0,13.3,1505.2,323.7,-0.8,1.8,2471.262,13.29,0.037,355.4
2022-11-12T07:55:03,42.805,6.029,-0.023,0.035,0.029,103.0,106.0,102.0,13.4,1505.2,328.3,-0.7,1.8,2471.268,13.29,0.041,326.7
2022-11-12T07:58:03,42.805,6.029,-0.018,0.035,0.04,105.0,105.0,102.0,13.3,1505.2,325.9,-0.7,1.9,2471.239,13.29,0.039,332.8
2022-11-12T08:04:03,42.805,6.029,0.009,0.019,0.049,104.0,105.0,102.0,13.4,1505.2,333.0,-0.8,1.8,2471.312,13.28,0.021,25.3
2022-11-12T08:07:03,42.805,6.029,-0.018,0.041,0.049,104.0,105.0,102.0,13.4,1505.2,318.1,-0.7,1.8,2471.282,13.28,0.044,336.3
2022-11-12T08:10:03,42.805,6.029,0.006,0.025,0.032,105.0,106.0,102.0,13.3,1505.2,333.0,-0.7,1.8,2471.314,13.29,0.025,13.5
2022-11-12T08:13:03,42.805,6.029,0.0,0.051,0.013,104.0,106.0,102.0,13.3,1505.2,327.9,-0.8,1.8,2471.316,13.29,0.051,0.0
2022-11-12T08:16:03,42.805,6.029,-0.022,0.028,0.006,104.0,105.0,101.0,13.3,1505.2,333.7,-0.8,1.9,2471.305,13.29,0.035,321.8
2022-11-12T08:19:03,42.805,6.029,0.004,0.03,0.028,103.0,106.0,102.0,13.4,1505.2,321.0,-0.8,1.8,2471.327,13.29,0.03,7.6
2022-11-12T08:22:03,42.805,6.029,0.012,0.042,0.024,104.0,105.0,102.0,13.4,1505.2,331.0,-0.7,1.8,2471.286,13.29,0.043,15.9
2022-11-12T08:25:03,42.805,6.029,-0.01,0.039,0.004,104.0,105.0,102.0,13.3,1505.2,324.1,-0.7,1.8,2471.33,13.29,0.04,345.6
2022-11-12T08:28:03,42.805,6.029,-0.01,0.023,0.039,105.0,105.0,102.0,13.3,1505.2,334.4,-0.8,1.8,2471.326,13.29,0.025,336.5
2022-11-12T08:31:03,42.805,6.029,-0.02,0.032,0.004,104.0,105.0,102.0,13.3,1505.2,319.6,-0.7,1.8,2471.277,13.29,0.037,328.0
2022-11-12T08:34:03,42.805,6.029,0.006,0.035,0.024,104.0,105.0,101.0,13.3,1505.2,324.0,-0.8,1.8,2471.311,13.29,0.035,9.7
2022-11-12T08:37:03,42.805,6.029,-0.032,0.04,0.0,104.0,105.0,102.0,13.4,1505.2,319.3,-0.8,1.8,2471.259,13.29,0.051,321.3
2022-11-12T08:40:03,42.805,6.029,0.01,0.047,0.054,103.0,105.0,102.0,13.4,1505.2,324.7,-0.8,1.8,2471.302,13.29,0.048,12.0
2022-11-12T08:43:03,42.805,6.029,0.011,0.038,0.051,105.0,106.0,102.0,13.4,1505.2,323.2,-0.8,1.8,2471.302,13.29,0.039,16.1
2022-11-12T08:46:03,42.805,6.029,-0.013,0.032,-0.002,104.0,106.0,102.0,13.4,1505.2,331.6,-0.8,1.8,2471.292,13.29,0.034,337.9
2022-11-12T08:49:03,42.805,6.029,0.005,0.044,0.033,104.0,105.0,102.0,13.4,1505.2,324.6,-0.8,1.8,2471.294,13.29,0.044,6.5
2022-11-12T08:52:03,42.805,6.029,-0.021,0.013,0.019,103.0,105.0,102.0,13.3,1505.2,323.1,-0.8,1.8,2471.283,13.29,0.024,301.8
2022-11-12T08:55:03,42.805,6.029,-0.047,0.034,0.02,105.0,106.0,101.0,13.3,1505.2,321.1,-0.7,1.8,2471.312,13.29,0.058,305.9
2022-11-12T08:58:03,42.805,6.029,-0.013,0.017,0.033,103.0,105.0,103.0,13.4,1505.2,326.3,-0.7,1.8,2471.303,13.29,0.021,322.6
2022-11-12T09:04:03,42.805,6.029,-0.013,0.056,0.038,104.0,106.0,102.0,13.3,1505.2,325.4,-0.7,1.8,2471.358,13.28,0.057,346.9
2022-11-12T09:07:03,42.805,6.029,-0.01,0.031,0.045,104.0,106.0,102.0,13.3,1505.2,334.1,-0.7,1.8,2471.342,13.28,0.032,342.1
2022-11-12T09:10:03,42.805,6.029,0.0,0.044,0.021,104.0,105.0,102.0,13.4,1505.2,332.7,-0.7,1.8,2471.282,13.29,0.044,0.0
2022-11-12T09:13:03,42.805,6.029,-0.014,0.035,0.029,104.0,105.0,102.0,13.4,1505.2,327.9,-0.8,1.8,2471.327,13.29,0.037,338.2
2022-11-12T09:16:03,42.805,6.029,-0.002,0.03,0.003,104.0,105.0,102.0,13.4,1505.2,324.7,-0.8,1.8,2471.377,13.29,0.03,356.2
2022-11-12T09:19:03,42.805,6.029,-0.018,0.033,0.014,104.0,106.0,101.0,13.4,1505.2,319.4,-0.8,1.8,2471.355,13.29,0.037,331.4
2022-11-12T09:22:03,42.805,6.029,-0.002,0.032,0.01,104.0,105.0,102.0,13.4,1505.2,323.3,-0.8,1.8,2471.266,13.29,0.032,356.4
2022-11-12T09:25:03,42.805,6.029,-0.029,0.047,0.041,103.0,106.0,102.0,13.3,1505.2,334.1,-0.8,1.8,2471.312,13.29,0.055,328.3
2022-11-12T09:28:03,42.805,6.029,-0.003,0.017,0.011,105.0,106.0,101.0,13.4,1505.2,335.3,-0.8,1.8,2471.35,13.29,0.017,350.0
2022-11-12T09:31:03,42.805,6.029,-0.011,0.039,0.02,104.0,105.0,102.0,13.4,1505.2,321.2,-0.8,1.8,2471.301,13.29,0.04,344.3
2022-11-12T09:34:03,42.805,6.029,-0.015,0.033,0.027,103.0,105.0,103.0,13.4,1505.2,319.4,-0.8,1.8,2471.299,13.29,0.036,335.6
2022-11-12T09:37:03,42.805,6.029,-0.015,0.039,0.044,104.0,105.0,102.0,13.3,1505.2,333.4,-0.8,1.8,2471.322,13.29,0.041,339.0
2022-11-12T09:40:03,42.805,6.029,-0.013,0.027,0.036,103.0,106.0,102.0,13.4,1505.2,322.1,-0.7,1.8,2471.354,13.29,0.029,334.3
2022-11-12T09:43:03,42.805,6.029,-0.006,0.029,0.016,104.0,105.0,102.0,13.4,1505.2,323.4,-0.8,1.8,2471.286,13.29,0.029,348.3
2022-11-12T09:46:03,42.805,6.029,-0.01,0.029,0.008,103.0,106.0,101.0,13.3,1505.2,334.4,-0.8,1.8,2471.31,13.29,0.03,341.0
2022-11-12T09:49:03,42.805,6.029,0.005,0.015,0.009,105.0,105.0,101.0,13.3,1505.2,318.9,-0.8,1.8,2471.314,13.29,0.015,18.4
2022-11-12T09:52:03,42.805,6.029,0.011,0.04,0.011,104.0,105.0,102.0,13.3,1505.2,318.5,-0.8,1.8,2471.29,13.29,0.041,15.4
2022-11-12T09:55:03,42.805,6.029,-0.034,0.03,0.007,103.0,105.0,103.0,13.4,1505.2,335.8,-0.8,1.8,2471.289,13.29,0.045,311.4
2022-11-12T09:58:03,42.805,6.029,-0.006,0.039,0.047,104.0,106.0,101.0,13.3,1505.2,322.5,-0.7,1.8,2471.301,13.29,0.039,351.3
2022-11-12T10:04:03,42.805,6.029,0.012,0.031,0.008,103.0,105.0,103.0,13.4,1505.2,327.0,-0.7,1.8,2471.344,13.28,0.033,21.2